Houma, LA

5:35 AM CDT on March 30, 2017 (GMT -0500)
Houma-terrebonne

Weather History for KHUM - May, 2013

Change the Weather History Date:

Friday, May 31, 2013

  Actual Average Record
Temperature  
Mean Temperature 82 °F -  
Max Temperature 87 °F 86 °F 95 °F (1937)
Min Temperature 77 °F 69 °F 50 °F (1984)
Cooling Degree Days 17    
Growing Degree Days 32 (Base 50)    
Moisture  
Dew Point 72 °F    
Average Humidity 74    
Maximum Humidity 83    
Minimum Humidity 55    
Precipitation  
Precipitation 0.00 in - - ()
Sea Level Pressure  
Sea Level Pressure 29.96 in    
Wind  
Wind Speed 9 mph (SE)    
Max Wind Speed 17 mph    
Max Gust Speed -    
Visibility 8 miles    
Events      
Averages and records for this station are not official NWS values.
T = Trace of Precipitation, MM = Missing Value Source: NWS Daily Summary

Daily Weather History Graph

Daily Weather History Graph

Search for Another Location

Airport or City:

Trip Planner

Search our weather history database for the weather conditions in past years. The results will help you decide how hot, cold, wet, or windy it might be!

Date:

Astronomy

May. 31, 2013 Rise Set
Actual Time 6:03 AM CDT 7:57 PM CDT
Civil Twilight 5:36 AM CDT 8:24 PM CDT
Nautical Twilight 5:03 AM CDT 8:57 PM CDT
Astronomical Twilight 4:29 AM CDT 9:31 PM CDT
Moon 12:53 AM CDT (5/31) 12:55 PM CDT (5/31)
Length of Visible Light 14h 48m
Length of Day
13h 54m
Waning Gibbous, 51% of the Moon is Illuminated
May 31
Waning Gibbous
May 31
Last Quarter
Jun 8
New
Jun 16
First Quarter
Jun 23
Full

Hourly Weather History & Observations

Time (CDT) Temp. Heat Index Dew Point Humidity Pressure Visibility Wind Dir Wind Speed Gust Speed Precip Events Conditions
12:15 AM 77.2 °F - 71.8 °F 83% 29.99 in 7.0 mi ESE 9.2 mph - N/A   Scattered Clouds
12:35 AM 77.9 °F - 71.8 °F 81% 29.98 in 7.0 mi ESE 6.9 mph - N/A   Scattered Clouds
12:55 AM 77.9 °F - 71.8 °F 81% 29.98 in 10.0 mi ESE 6.9 mph - N/A   Scattered Clouds
1:15 AM 78.1 °F - 71.8 °F 81% 29.97 in 7.0 mi SE 6.9 mph - N/A   Mostly Cloudy
1:35 AM 78.3 °F - 72.1 °F 81% 29.96 in 10.0 mi SE 8.1 mph - N/A   Mostly Cloudy
1:55 AM 78.3 °F - 72.0 °F 81% 29.96 in 10.0 mi SE 8.1 mph - N/A   Mostly Cloudy
2:15 AM 78.3 °F - 72.0 °F 81% 29.95 in 10.0 mi SE 8.1 mph - N/A   Mostly Cloudy
2:35 AM 78.3 °F - 71.8 °F 80% 29.95 in 7.0 mi SE 10.4 mph - N/A   Mostly Cloudy
2:55 AM 78.3 °F - 71.6 °F 80% 29.95 in 7.0 mi SE 10.4 mph - N/A   Mostly Cloudy
3:15 AM 78.4 °F - 71.8 °F 80% 29.94 in 7.0 mi SE 8.1 mph - N/A   Mostly Cloudy
3:35 AM 78.4 °F - 71.8 °F 80% 29.94 in 7.0 mi SE 6.9 mph - N/A   Mostly Cloudy
3:55 AM 78.4 °F - 72.0 °F 80% 29.94 in 7.0 mi SE 9.2 mph - N/A   Mostly Cloudy
4:15 AM 78.8 °F - 72.1 °F 80% 29.94 in 7.0 mi SE 12.7 mph - N/A   Mostly Cloudy
4:35 AM 78.4 °F - 71.6 °F 79% 29.94 in 10.0 mi SSE 8.1 mph - N/A   Scattered Clouds
4:55 AM 78.4 °F - 71.8 °F 80% 29.94 in 10.0 mi SE 10.4 mph - N/A   Scattered Clouds
5:15 AM 77.9 °F - 72.0 °F 82% 29.94 in 10.0 mi SE 9.2 mph - N/A   Scattered Clouds
5:35 AM 78.3 °F - 71.8 °F 80% 29.94 in 10.0 mi SSE 9.2 mph - N/A   Scattered Clouds
5:51 AM 78.8 °F - 71.6 °F 78% 29.97 in 7.0 mi SSE 10.4 mph - N/A   Scattered Clouds
5:55 AM 78.1 °F - 72.0 °F 81% 29.95 in 10.0 mi SE 5.8 mph - N/A   Scattered Clouds
6:50 AM 78.8 °F - 71.6 °F 78% 29.99 in 7.0 mi SSE 10.4 mph - N/A   Mostly Cloudy
7:50 AM 80.6 °F 85.4 °F 73.4 °F 79% 30.00 in 7.0 mi SSE 9.2 mph - N/A   Mostly Cloudy
8:51 AM 82.4 °F 87.2 °F 71.6 °F 70% 30.01 in 7.0 mi SSE 12.7 mph - N/A   Mostly Cloudy
9:48 AM 84.2 °F 89.6 °F 71.6 °F 66% 30.01 in 7.0 mi SE 12.7 mph - N/A   Scattered Clouds
10:48 AM 84.2 °F 89.6 °F 71.6 °F 66% 30.01 in 7.0 mi SE 17.3 mph - N/A   Mostly Cloudy
11:53 AM 86.0 °F 91.8 °F 71.6 °F 62% 30.01 in 7.0 mi SE 12.7 mph - N/A   Mostly Cloudy
12:50 PM 87.8 °F 92.6 °F 69.8 °F 55% 30.00 in 7.0 mi SE 17.3 mph - N/A   Scattered Clouds
1:48 PM 87.8 °F 93.8 °F 71.6 °F 58% 29.99 in 7.0 mi SE 13.8 mph - N/A   Scattered Clouds
2:50 PM 87.8 °F 93.8 °F 71.6 °F 58% 29.99 in 7.0 mi SE 17.3 mph - N/A   Scattered Clouds
3:50 PM 87.8 °F 93.8 °F 71.6 °F 58% 29.97 in 7.0 mi SE 11.5 mph - N/A   Scattered Clouds
4:50 PM 87.8 °F 92.6 °F 69.8 °F 55% 29.96 in 7.0 mi SSE 11.5 mph - N/A   Scattered Clouds
5:50 PM 84.2 °F 89.6 °F 71.6 °F 66% 29.95 in 7.0 mi SSE 9.2 mph - N/A   Partly Cloudy
6:50 PM 84.2 °F 89.6 °F 71.6 °F 66% 29.96 in 7.0 mi SE 10.4 mph - N/A   Scattered Clouds
7:15 PM 82.4 °F 87.0 °F 71.2 °F 69% 29.95 in 7.0 mi SE 13.8 mph - N/A   Scattered Clouds
7:35 PM 81.5 °F 85.5 °F 71.1 °F 70% 29.95 in 7.0 mi SE 8.1 mph - N/A   Scattered Clouds
7:55 PM 81.0 °F 84.7 °F 70.9 °F 71% 29.95 in 7.0 mi SE 9.2 mph - N/A   Scattered Clouds
8:15 PM 80.6 °F 84.4 °F 71.4 °F 73% 29.96 in 10.0 mi SE 8.1 mph - N/A   Scattered Clouds
8:35 PM 80.4 °F 84.2 °F 71.6 °F 74% 29.96 in 7.0 mi SE 8.1 mph - N/A   Scattered Clouds
8:55 PM 80.2 °F 84.0 °F 71.8 °F 75% 29.96 in 10.0 mi SE 9.2 mph - N/A   Mostly Cloudy
9:15 PM 79.9 °F - 71.6 °F 76% 29.96 in 10.0 mi ESE 9.2 mph - N/A   Mostly Cloudy
9:35 PM 79.9 °F - 71.8 °F 76% 29.96 in 7.0 mi ESE 8.1 mph - N/A   Overcast
9:55 PM 79.2 °F - 70.7 °F 75% 29.96 in 10.0 mi ESE 5.8 mph - N/A   Mostly Cloudy
10:15 PM 78.8 °F - 71.6 °F 78% 29.96 in 10.0 mi East 6.9 mph - N/A   Mostly Cloudy
10:35 PM 78.4 °F - 70.9 °F 77% 29.96 in 10.0 mi ESE 5.8 mph - N/A   Scattered Clouds
10:55 PM 78.8 °F - 71.1 °F 77% 29.96 in 10.0 mi ESE 8.1 mph - N/A   Clear
11:15 PM 78.3 °F - 71.1 °F 78% 29.95 in 10.0 mi ESE 8.1 mph - N/A   Scattered Clouds
11:35 PM 78.8 °F - 71.6 °F 78% 29.95 in 7.0 mi ESE 9.2 mph - N/A   Scattered Clouds
11:55 PM 79.0 °F - 71.6 °F 78% 29.95 in 7.0 mi SE 8.1 mph - N/A   Scattered Clouds